Tracking 30918 objects as of 2-Jul-2025
HD Live streaming from Space Station
objects crossing your sky now

STARLINK-5652

Track STARLINK-5652 now!
10-day predictions
STARLINK-5652 is classified as:


NORAD ID: 55334
Int'l Code: 2023-013D
Perigee: 565.2 km
Apogee: 567.3 km
Inclination: 43.0 °
Period: 95.8 minutes
Semi major axis: 6937 km
RCS: Unknown
Launch date: January 26, 2023
Source: United States (US)
Launch site: AIR FORCE EASTERN TEST RANGE (AFETR)
Your satellite tracking list
Your tracking list is empty




NASA's NSSDC Master Catalog

Two Line Element Set (TLE):
1 55334U 23013D   25183.12435097  .00000702  00000-0  67009-4 0  9994
2 55334  43.0035 222.1029 0001517 276.8751  83.1919 15.02538764134443
Source of the keplerian elements: AFSPC